Temperature
15 14 14 14 14 13 13 13 13 13 13 13 13 13 13 13 13 13 13 13 13 13 13 13 13 13 13 13 13 13 13 13 14 14 14 14 14 14 14 14 15 15 15
15 14 14 14 14 14 13 13 13 13 13 13 13 13 13 13 13 13 13 13 13 13 13 13 13 13 13 13 13 13 13 13 13 13 14 14 14 14 14 14 14 14 15
15 14 14 14 14 14 13 13 13 13 13 13 13 13 13 13 13 13 13 13 13 13 13 13 13 13 13 13 13 13 13 13 13 13 13 13 13 13 13 14 14 14 14
15 15 14 14 14 14 14 13 13 13 13 13 13 13 13 13 13 13 13 13 13 13 13 13 13 13 13 13 13 13 13 13 13 13 13 13 13 13 13 13 13 14 14
15 15 15 14 14 14 14 14 13 13 13 13 13 13 13 13 13 13 13 13 13 13 13 13 13 13 13 13 13 13 13 13 13 13 13 13 13 13 13 13 13 13 13
15 15 15 15 14 14 14 14 14 13 13 13 13 13 13 13 13 13 13 13 13 13 13 13 13 13 13 13 13 13 13 13 13 13 13 13 13 13 13 13 13 13 13
16 15 15 15 15 14 14 14 14 14 14 14 13 13 13 13 13 14 13 13 13 13 13 13 13 13 13 13 13 13 13 13 13 13 12 12 12 12 12 12 12 12 13
16 16 15 15 15 15 14 14 14 14 14 14 14 13 13 13 14 13 13 13 13 13 13 13 13 13 13 13 13 13 13 13 12 12 12 12 12 12 12 12 12 12 12
16 16 16 15 15 15 15 15 14 14 14 14 14 13 13 13 13 13 13 13 13 13 13 13 13 13 13 13 13 12 12 12 12 12 12 12 12 12 12 12 12 12 12
17 16 16 16 15 15 15 15 15 14 14 14 14 13 13 13 13 13 13 13 13 13 13 13 13 13 13 13 12 12 12 12 12 12 12 12 12 12 12 12 12 11 11
17 16 16 16 15 15 15 15 14 14 14 14 14 13 13 13 13 13 13 13 13 13 13 13 13 13 13 12 12 12 12 12 12 12 12 12 12 11 11 11 11 11 11
17 17 16 16 15 15 15 15 14 14 14 13 13 13 13 13 13 13 13 13 13 12 12 12 12 12 12 12 12 12 12 12 11 11 11 11 11 11 11 11 11 11 11
17 17 16 16 15 15 15 15 14 14 13 13 13 13 13 13 13 13 13 12 12 12 12 12 12 12 12 11 11 11 11 11 11 11 11 11 11 11 11 11 11 11 11
17 17 16 16 15 15 15 14 14 14 13 13 13 13 13 13 13 12 12 12 12 11 11 11 11 11 11 11 11 11 10 10 10 10 10 10 10 10 10 10 10 10 10
17 17 16 15 15 15 14 14 14 14 13 13 13 13 12 12 12 12 12 11 11 11 11 10 10 10 10 10 10 10 10 10 10 10 10 10 10 10 9 9 9 10 9
17 16 16 15 15 15 14 14 13 13 13 13 13 12 12 12 12 12 11 11 11 10 10 10 10 10 9 9 9 9 9 9 9 9 9 9 9 9 9 9 9 9 8
17 16 16 15 15 15 14 14 13 13 13 12 12 12 12 12 11 11 11 10 10 10 10 9 9 9 9 8 8 8 8 8 8 8 8 8 8 8 8 8 7 7 8
17 16 16 16 15 15 14 14 13 13 12 12 12 11 11 11 11 10 10 10 9 9 9 8 8 8 8 8 7 7 7 7 7 7 7 7 7 7 6 6 6 6 6
16 16 16 16 15 14 14 13 12 12 12 12 11 11 10 10 10 9 9 9 8 8 8 8 7 7 7 7 7 6 6 6 6 6 6 6 6 5 5 5 5 5 5
16 16 16 15 14 14 13 12 12 11 11 11 11 10 10 9 9 8 8 8 7 7 7 7 7 6 6 6 6 5 5 5 5 5 5 5 5 4 4 4 4 4 4
16 15 15 15 14 13 13 12 12 11 11 10 10 10 9 9 8 8 7 7 7 7 6 6 6 6 6 5 5 5 4 4 4 4 4 4 4 4 3 3 3 2 2
15 15 14 14 13 13 12 12 11 11 10 10 9 9 8 8 7 7 7 7 6 6 6 5 5 5 5 5 4 4 4 4 4 4 4 3 3 3 2 2 2 1 1
14 14 14 13 13 12 12 11 11 10 10 10 9 9 8 7 7 7 6 6 6 5 5 5 4 4 4 4 4 4 4 4 3 3 3 3 2 2 1 1 1 0 -0
13 13 13 12 12 11 11 11 10 10 10 9 9 8 7 7 7 6 6 6 5 5 5 4 4 4 3 3 3 3 3 3 3 3 2 2 2 1 0 -0 -1 -1 -1
12 12 12 12 11 11 11 10 10 9 9 9 8 8 7 7 6 6 5 5 5 4 4 4 3 3 3 3 3 3 3 2 2 2 2 2 1 0 -0 -1 -1 -2 -2
11 11 11 11 11 10 10 10 9 9 8 8 8 7 7 6 6 5 5 5 4 4 3 3 3 3 2 2 2 2 2 2 2 1 1 1 0 -1 -1 -2 -2 -2 -2
Wind_Speed
4 3 3 2 1 1 1 1 1 2 2 2 2 2 2 3 2 2 2 2 2 2 1 1 1 0 0 0 0 0 1 1 1 2 2 2 2 2 1 2 3 4 6
4 3 3 3 2 1 0 0 1 1 1 2 2 3 3 3 3 3 2 2 2 2 2 1 0 0 1 1 0 0 0 1 1 1 2 2 2 3 2 2 2 3 4
5 4 3 4 3 2 0 0 1 2 1 1 1 2 3 3 3 2 2 2 1 1 1 2 2 2 2 1 1 0 0 0 1 1 2 2 2 2 2 3 3 2 4
7 5 4 3 4 3 1 0 1 2 2 2 2 2 2 3 3 3 2 2 2 2 2 2 3 3 3 2 2 1 1 0 1 1 1 2 1 2 1 2 3 2 3
8 6 5 4 4 3 2 1 0 1 2 2 3 3 3 3 4 5 5 4 3 2 2 2 3 3 4 3 2 2 2 1 1 1 1 1 2 1 1 1 3 3 3
9 8 6 4 4 4 3 2 2 1 1 1 2 2 2 2 4 5 4 4 3 3 2 1 1 2 2 1 1 1 1 1 1 1 1 1 2 2 2 2 2 2 3
9 8 8 6 5 4 4 3 2 2 2 1 1 1 0 1 2 3 4 3 3 2 2 2 2 3 2 1 1 2 2 3 4 2 1 2 2 2 1 2 2 3 3
9 9 8 7 6 5 4 3 3 3 3 2 2 2 1 1 1 2 3 2 3 2 2 2 1 3 4 4 3 2 1 1 2 2 1 1 2 2 1 2 3 3 4
9 9 9 9 7 7 6 5 4 3 2 2 2 3 2 2 2 2 2 3 2 1 0 2 2 3 5 5 3 3 3 2 2 1 2 3 3 3 3 2 3 2 3
10 9 9 9 8 7 6 5 4 3 4 3 2 2 2 2 2 1 1 2 2 2 1 3 4 4 4 5 3 3 4 4 5 4 3 4 3 3 3 2 2 2 2
10 9 8 8 8 7 6 4 4 4 3 3 3 3 3 3 3 2 2 1 2 2 1 2 2 4 4 4 3 2 3 4 5 4 3 2 2 1 1 1 1 1 2
10 9 8 8 8 7 6 5 4 3 3 4 4 3 2 3 4 3 2 0 2 2 2 2 2 4 4 4 3 4 5 5 3 3 3 3 3 3 3 3 4 3 2
11 10 9 8 7 6 6 5 4 3 3 3 3 2 2 3 4 4 1 1 1 1 1 3 3 3 2 1 2 4 4 3 3 3 4 4 4 4 4 5 5 5 5
11 10 9 8 8 7 5 4 3 2 2 2 2 2 2 3 3 2 0 0 1 1 1 1 2 2 2 3 3 3 3 3 3 4 4 4 5 5 5 4 4 5 4
12 11 10 8 8 7 5 3 3 3 2 2 2 2 3 3 3 3 2 2 2 2 1 1 2 3 3 4 4 4 4 5 5 4 4 5 5 5 5 5 5 4 4
11 11 9 8 8 8 8 6 9 7 8 9 8 6 5 7 6 6 6 6 5 4 4 3 3 3 4 4 4 4 5 5 4 4 4 4 4 5 5 4 4 4 4
11 11 9 9 9 9 9 9 7 5 8 9 8 9 8 7 6 5 5 5 5 6 5 4 4 4 4 4 4 4 3 4 4 4 4 4 4 4 5 5 5 5 5
11 12 11 9 9 9 9 9 9 8 6 4 4 7 8 7 5 4 4 4 4 4 4 4 4 4 4 4 4 3 3 3 4 4 4 4 5 5 5 5 5 5 5
10 9 9 9 9 9 9 9 8 9 8 7 6 4 6 6 5 3 3 3 4 4 4 4 4 4 4 4 3 3 3 3 4 4 4 5 5 4 4 5 5 7 6
8 12 12 9 9 8 8 8 8 8 9 9 8 7 6 5 4 3 3 3 4 4 4 4 4 4 4 3 3 3 3 3 4 4 4 4 5 4 5 5 5 5 5
8 10 14 10 9 9 8 8 8 8 8 8 7 8 9 6 5 6 5 4 4 4 4 4 4 4 4 3 3 3 4 4 4 4 4 4 4 4 4 4 5 5 6
8 9 9 9 8 8 8 8 8 8 9 9 8 7 8 5 5 5 5 5 5 5 5 4 4 4 4 3 3 4 4 4 4 4 4 4 4 4 4 4 5 5 6
8 10 9 8 8 10 10 8 8 8 9 9 9 8 6 5 6 6 6 5 5 5 4 4 4 4 3 4 5 4 5 4 4 4 4 4 4 5 5 5 6 7 7
8 10 10 9 8 9 9 9 9 9 10 10 9 8 7 7 7 7 6 6 6 5 4 4 4 5 5 5 7 9 9 7 6 5 5 5 5 5 5 5 6 7 7
8 9 10 10 10 9 9 9 9 9 10 9 9 8 8 7 7 7 7 6 7 6 5 5 5 5 6 7 9 9 7 5 4 5 5 4 5 5 6 6 6 7 8
8 9 9 9 9 9 9 10 10 10 9 9 9 8 8 8 7 7 7 6 6 5 5 4 6 6 6 9 10 8 5 3 3 6 7 5 6 5 6 6 8 8 9
Wind_Direction
171 180 141 151 184 240 209 52 310 322 352 338 343 359 22 32 41 51 17 29 26 13 6 91 100 87 105 50 67 132 152 138 238 294 315 318 330 315 288 257 233 213 209
169 170 166 169 175 238 215 138 303 327 339 339 358 18 31 39 35 33 14 51 59 24 5 33 70 115 120 122 76 268 201 188 172 266 290 300 297 295 291 274 261 245 226
164 178 186 173 169 195 216 238 301 323 328 322 8 28 31 34 36 36 33 34 56 31 2 20 28 51 43 53 66 40 353 181 203 230 270 284 287 288 296 297 284 270 255
169 183 194 184 167 177 175 210 309 327 338 349 21 31 31 30 24 18 16 15 31 43 30 43 51 49 36 11 7 359 357 350 278 244 258 281 289 298 306 301 303 288 269
171 181 191 190 170 167 164 172 223 331 340 352 9 15 23 32 28 27 6 357 9 29 34 55 77 88 71 49 26 1 0 351 330 303 276 293 295 315 307 293 293 293 280
175 179 177 185 170 167 176 180 195 206 305 344 359 7 19 32 48 38 18 343 341 5 19 49 129 133 121 120 86 0 301 269 269 286 277 275 288 294 297 302 304 316 299
178 176 174 182 178 176 187 183 195 194 216 264 282 290 337 75 43 10 353 330 323 345 357 2 19 61 66 23 323 283 276 257 239 225 261 283 288 292 311 318 309 302 279
180 175 174 177 179 179 186 195 204 207 197 206 227 229 204 190 219 300 314 296 293 304 332 351 40 46 33 26 360 345 341 331 254 222 210 276 305 331 337 289 282 291 286
180 178 176 177 180 182 188 196 198 213 220 206 211 223 210 214 231 252 298 283 279 282 6 43 51 72 43 31 17 355 5 356 345 303 230 251 271 285 294 320 315 313 299
179 180 178 175 173 180 189 191 189 200 213 215 220 215 206 188 192 202 256 280 292 292 114 89 65 66 60 43 26 15 11 351 348 340 311 283 266 260 256 238 264 300 308
172 173 170 165 169 178 182 184 196 201 200 207 221 220 198 158 144 132 109 339 317 331 30 72 60 73 69 51 46 33 349 331 330 327 323 314 311 320 289 279 272 236 274
158 162 166 167 176 178 171 184 199 190 197 215 220 218 173 138 126 130 115 4 322 350 20 41 58 75 67 54 40 360 350 349 333 335 350 360 4 1 355 346 327 305 265
157 164 169 171 172 163 165 178 188 189 198 213 200 186 153 123 109 102 91 339 332 100 72 72 90 80 46 54 1 357 6 11 6 14 14 7 2 2 2 352 343 342 339
165 170 173 176 169 161 157 164 166 172 185 197 175 148 127 106 80 51 25 30 100 124 158 131 112 73 42 18 35 33 33 39 37 30 11 3 4 10 9 1 354 350 349
174 176 178 174 163 152 128 93 116 88 111 131 107 90 98 104 79 71 69 60 55 63 53 80 74 66 53 40 40 42 37 36 35 24 19 13 9 9 6 5 5 3 5
184 181 176 167 158 148 136 109 67 89 90 88 92 103 87 102 112 93 81 74 68 65 77 82 74 70 65 55 48 41 38 32 26 25 24 19 10 3 0 2 6 9 3
186 177 170 167 164 161 156 152 142 97 78 81 94 106 116 120 113 105 95 77 66 77 86 85 81 77 70 63 53 49 40 27 21 27 26 18 11 7 6 4 7 6 357
189 179 170 167 165 167 166 164 160 158 152 128 107 125 132 135 134 132 124 103 82 82 88 91 87 82 77 71 58 45 41 33 27 27 25 19 14 10 9 3 1 359 345
187 175 168 165 164 166 164 162 162 162 153 147 143 148 160 153 143 142 132 121 113 106 100 91 86 83 77 71 62 44 43 44 36 32 26 19 13 11 7 359 353 351 352
185 175 164 162 164 164 164 164 162 158 154 157 160 160 166 167 159 151 138 120 112 111 110 106 94 86 79 70 59 45 41 47 43 37 27 19 12 9 2 358 355 352 347
173 170 167 165 168 167 166 165 161 158 158 155 151 155 167 168 151 141 133 120 114 109 103 102 99 89 80 69 55 43 46 51 48 36 24 14 10 2 353 349 346 344 338
173 168 172 171 166 165 164 161 157 156 153 143 140 148 152 147 139 135 130 124 115 109 105 100 96 92 86 79 66 55 54 51 41 28 14 5 357 345 340 341 341 335 331
172 168 171 170 164 162 162 160 158 156 150 145 148 151 156 152 143 136 130 122 115 109 103 101 102 96 83 76 71 71 71 59 35 18 6 354 343 335 333 332 328 327 327
175 171 172 170 165 165 166 161 157 153 149 150 153 155 157 150 143 138 133 128 123 117 113 109 108 106 97 89 87 86 80 64 35 13 0 339 325 321 323 324 321 319 318
179 175 174 170 166 166 165 158 155 152 151 153 154 153 150 145 141 137 133 129 126 124 122 118 114 104 94 95 103 105 97 73 38 359 331 311 308 310 311 311 310 309 307
179 174 169 164 163 163 162 158 156 153 152 151 150 148 146 144 140 137 135 132 131 130 125 120 116 110 105 107 112 113 105 62 356 332 314 293 291 293 300 299 302 301 301
Height
1488 1489 1489 1489 1489 1489 1489 1488 1488 1487 1487 1486 1485 1484 1482 1482 1481 1480 1480 1480 1480 1480 1480 1481 1481 1481 1482 1483 1484 1485 1485 1486 1486 1487 1488 1489 1490 1491 1491 1492 1493 1493 1494
1487 1488 1488 1488 1488 1489 1489 1488 1488 1487 1487 1486 1485 1484 1483 1482 1481 1481 1480 1481 1480 1480 1481 1481 1481 1482 1482 1482 1483 1483 1484 1485 1485 1485 1486 1487 1488 1488 1488 1489 1489 1490 1490
1485 1486 1486 1487 1487 1488 1488 1488 1488 1487 1487 1486 1485 1485 1484 1483 1482 1482 1481 1481 1481 1481 1481 1481 1481 1481 1482 1482 1482 1482 1483 1483 1484 1484 1485 1485 1485 1486 1486 1486 1486 1486 1487
1482 1483 1485 1485 1486 1486 1487 1487 1487 1487 1487 1486 1486 1485 1484 1484 1483 1482 1482 1482 1482 1481 1481 1481 1481 1481 1481 1481 1481 1481 1482 1482 1483 1483 1483 1483 1483 1484 1484 1483 1483 1483 1484
1480 1481 1482 1484 1485 1485 1485 1486 1486 1486 1486 1486 1485 1485 1484 1484 1483 1483 1482 1482 1482 1482 1481 1481 1481 1481 1481 1480 1480 1480 1481 1481 1481 1481 1481 1482 1482 1482 1482 1481 1481 1480 1480
1478 1479 1480 1482 1483 1483 1484 1484 1485 1485 1485 1485 1485 1485 1484 1484 1483 1483 1483 1482 1482 1482 1481 1481 1481 1480 1480 1480 1480 1480 1480 1480 1480 1480 1480 1480 1480 1480 1480 1479 1478 1477 1477
1475 1476 1478 1479 1480 1481 1482 1483 1483 1484 1484 1484 1484 1484 1484 1483 1483 1483 1482 1482 1482 1482 1481 1481 1481 1480 1480 1479 1479 1479 1479 1479 1479 1479 1479 1478 1478 1478 1477 1476 1475 1475 1474
1472 1474 1475 1477 1478 1479 1480 1481 1482 1482 1483 1483 1483 1483 1483 1483 1482 1482 1482 1482 1481 1481 1481 1481 1480 1480 1480 1479 1479 1478 1478 1478 1478 1478 1477 1477 1477 1476 1475 1475 1473 1473 1472
1469 1471 1472 1474 1475 1476 1478 1479 1480 1480 1481 1481 1481 1481 1481 1481 1481 1481 1481 1481 1481 1481 1480 1480 1480 1479 1479 1479 1478 1478 1477 1477 1477 1477 1476 1476 1475 1474 1474 1473 1472 1471 1470
1465 1467 1469 1471 1472 1474 1475 1476 1477 1478 1479 1479 1479 1479 1479 1480 1480 1480 1480 1479 1479 1479 1479 1479 1479 1478 1478 1478 1477 1477 1476 1476 1476 1476 1475 1474 1474 1473 1473 1472 1471 1470 1469
1461 1464 1466 1468 1469 1471 1472 1473 1474 1475 1476 1477 1477 1477 1478 1478 1477 1478 1478 1477 1477 1477 1477 1477 1477 1477 1477 1476 1476 1476 1475 1475 1474 1474 1474 1473 1473 1472 1472 1471 1470 1469 1468
1457 1460 1462 1464 1466 1467 1469 1470 1471 1472 1473 1474 1475 1475 1475 1475 1475 1475 1475 1475 1475 1475 1475 1475 1475 1475 1475 1475 1474 1474 1474 1474 1473 1473 1472 1472 1472 1471 1470 1469 1468 1467 1467
1453 1455 1458 1460 1462 1464 1465 1467 1468 1469 1470 1471 1472 1473 1473 1473 1473 1473 1473 1473 1472 1473 1473 1473 1473 1473 1473 1473 1473 1473 1472 1472 1471 1471 1471 1471 1470 1469 1468 1467 1466 1465 1464
1448 1451 1453 1456 1458 1460 1461 1463 1464 1465 1466 1468 1469 1469 1470 1470 1470 1470 1470 1470 1470 1470 1470 1471 1471 1471 1471 1471 1471 1471 1471 1470 1470 1470 1469 1469 1468 1467 1466 1465 1464 1462 1461
1443 1446 1448 1451 1453 1455 1457 1459 1460 1461 1463 1464 1465 1466 1466 1467 1467 1468 1468 1468 1468 1469 1469 1469 1469 1469 1469 1469 1469 1469 1469 1469 1468 1468 1467 1467 1466 1465 1464 1463 1462 1460 1459
1438 1440 1443 1446 1448 1450 1452 1454 1456 1458 1459 1460 1462 1463 1463 1464 1465 1465 1465 1466 1466 1466 1467 1467 1467 1467 1468 1468 1468 1468 1467 1467 1467 1466 1465 1465 1464 1463 1462 1461 1460 1458 1457
1432 1434 1437 1440 1442 1444 1446 1449 1451 1453 1455 1456 1458 1459 1460 1461 1461 1462 1462 1463 1463 1464 1464 1465 1465 1465 1466 1466 1466 1466 1466 1465 1465 1464 1463 1463 1462 1461 1459 1458 1457 1456 1454
1426 1429 1431 1433 1436 1439 1441 1444 1446 1448 1450 1452 1454 1455 1456 1457 1458 1459 1460 1460 1461 1462 1462 1463 1463 1464 1464 1464 1464 1464 1464 1463 1463 1462 1461 1461 1459 1458 1457 1456 1455 1453 1452
1419 1422 1425 1427 1430 1433 1436 1439 1442 1444 1446 1448 1450 1451 1453 1454 1456 1457 1457 1458 1459 1460 1460 1461 1461 1462 1462 1462 1462 1462 1462 1461 1461 1460 1459 1458 1457 1456 1455 1454 1452 1451 1449
1413 1416 1418 1421 1424 1428 1431 1434 1437 1439 1441 1443 1445 1448 1449 1451 1453 1454 1455 1456 1457 1458 1458 1459 1459 1460 1460 1460 1460 1460 1460 1459 1458 1458 1457 1456 1455 1453 1452 1451 1449 1447 1446
1406 1409 1412 1415 1418 1422 1425 1428 1431 1434 1437 1439 1441 1444 1446 1448 1450 1451 1453 1454 1455 1456 1456 1457 1457 1458 1458 1458 1458 1458 1457 1457 1456 1455 1454 1453 1452 1450 1449 1447 1446 1444 1442
1399 1402 1405 1409 1412 1416 1419 1423 1426 1429 1432 1435 1437 1440 1443 1445 1447 1448 1450 1451 1453 1453 1454 1455 1455 1455 1455 1455 1455 1455 1454 1454 1453 1452 1451 1450 1448 1447 1446 1444 1442 1441 1439
1392 1395 1399 1403 1407 1410 1414 1417 1421 1424 1427 1430 1433 1436 1439 1441 1444 1446 1447 1449 1450 1451 1451 1452 1452 1452 1453 1452 1452 1452 1451 1451 1450 1449 1448 1446 1445 1443 1442 1441 1439 1437 1435
1386 1389 1392 1396 1400 1404 1408 1412 1416 1419 1423 1426 1429 1432 1435 1438 1440 1442 1444 1445 1447 1448 1449 1449 1449 1450 1450 1449 1449 1449 1448 1447 1446 1445 1444 1443 1441 1440 1438 1437 1435 1434 1432
1380 1383 1387 1390 1394 1398 1403 1407 1411 1414 1418 1421 1425 1428 1432 1434 1437 1439 1441 1442 1444 1445 1446 1446 1446 1447 1447 1446 1446 1445 1444 1444 1443 1441 1440 1438 1437 1435 1434 1433 1431 1429 1428
1375 1378 1381 1385 1388 1393 1397 1401 1405 1409 1413 1417 1421 1424 1427 1430 1433 1435 1437 1439 1440 1442 1443 1443 1443 1444 1443 1443 1442 1442 1441 1440 1439 1437 1436 1434 1433 1431 1430 1428 1427 1425 1423